Location: ????????
(60.6078°N, 46.8352°E)
Time: 11:25:58
(UTC+00:00)

Daily predictions for brighter satellites

Satellite Brightness Start Highest point End
(mag) Time Altitude Azimuth Time Altitude Azimuth Time Altitude Azimuth
Cosmos 44 3.8 17:39:30 10° WNW 17:44:11 54° SW 17:49:07 10° SSE
CZ-2C R/B 3.8 17:42:05 10° NNE 17:46:46 90° ENE 17:51:19 10° SSW
USA 267 4.2 17:43:33 10° E 17:48:40 24° SE 17:53:46 10° S
COSMOS 2428 3.4 17:45:38 10° NW 17:51:14 49° NE 17:56:49 10° ESE
NOSS 3-2 (A) 3.9 17:48:01 10° SSW 17:53:30 40° SE 17:59:46 10° ENE
OBJECT-B 3.5 17:52:03 10° SW 17:54:30 19° W 17:56:59 10° NW
Cosmos 614 Rocket 4.4 17:49:40 10° SW 17:54:52 70° NW 18:00:08 10° NNE
Meteor 1-20 Rocket 4.4 17:51:05 10° S 17:56:52 68° E 18:02:42 10° NNE
Cosmos 1602 4.0 17:55:05 10° S 17:58:54 51° E 18:02:45 10° NNE
Cosmos 44 Rocket 3.5 17:54:10 10° WNW 17:59:06 74° NNE 18:04:08 10° ESE
Cosmos 1833 Rocket 2.8 17:53:27 10° SW 17:59:06 87° NW 18:04:48 10° NE
Cosmos 1470 Rocket 3.5 17:55:03 10° S 17:59:26 74° E 18:03:49 10° NNE
Cosmos 2237 Rocket 3.4 17:56:08 10° NW 18:01:25 37° NNE 18:06:40 10° E
Cosmos 2344 4.2 17:53:56 10° WNW 18:01:58 78° N 18:12:38 10° E
Cosmos 2221 Rocket 4.2 17:57:54 10° N 18:02:14 44° ENE 18:06:33 10° SE
NOSS 3-2 (C) 4.1 17:57:43 10° S 18:02:56 33° ESE 18:08:50 10° ENE
Cosmos 540 Rocket 3.6 17:59:29 10° NW 18:04:42 79° WSW 18:09:53 10° SSE
Cosmos 1242 Rocket 3.8 18:02:03 10° N 18:05:17 29° ENE 18:08:32 10° ESE
Sich 1 4.4 18:01:57 10° SW 18:06:13 45° WNW 18:10:31 10° N
SPOT 5 2.7 18:01:56 10° SSE 18:06:18 86° ENE 18:10:49 10° NNW
Cosmos 1184 Rocket 3.0 18:04:57 10° SSW 18:08:15 75° WNW 18:11:35 10° NNE
Cosmos 2333 Rocket 2.6 18:04:02 10° NW 18:09:48 63° NE 18:15:32 10° ESE
Cosmos 1934 Rocket 4.3 18:03:38 10° SSW 18:10:01 77° WNW 18:16:25 10° NNE
Cosmos 1437 Rocket 3.1 18:06:19 10° NNW 18:10:07 63° WSW 18:13:52 10° S
SPOT 1/Viking Rocket 4.0 18:05:55 10° S 18:11:06 63° WSW 18:16:20 10° NNW
Cosmos 405 Rocket 2.6 18:09:24 10° S 18:13:07 69° ESE 18:16:55 10° NNE
SL-27 R/B 3.4 18:13:22 10° SSE 18:16:12 26° ESE 18:19:03 10° NE
USA 32 4.2 18:11:23 10° SSW 18:16:38 80° WNW 18:21:54 10° N
Cosmos 1515 4.2 18:13:55 10° NNW 18:17:43 60° W 18:21:29 10° S
Resurs 01 Rocket 3.6 18:14:16 10° SSW 18:18:01 26° W 18:21:47 10° NW
Cosmos 1850 Rocket 4.3 18:14:02 10° S 18:19:04 46° ESE 18:24:05 10° NE
GP-B 3.9 18:15:49 10° N 18:20:11 54° W 18:24:31 10° SSW
ERBS 2.7 18:18:17 10° W 18:21:28 43° S 18:24:30 11° ESE
ERS-1 Rocket 3.2 18:16:53 10° S 18:21:54 70° WSW 18:26:56 10° NNW
Cosmos 1271 Rocket 4.2 18:18:41 10° N 18:21:56 26° ENE 18:25:11 10° ESE
Cosmos 841 Rocket 3.9 18:16:59 10° NW 18:22:09 62° WSW 18:27:20 10° SSE
Cosmos 676 Rocket 4.1 18:16:56 10° SSW 18:22:18 88° ESE 18:27:42 10° NNE
OPS 6432 4.4 18:19:53 10° SW 18:23:15 49° SE 18:26:08 10° ENE
Okean 1 4.5 18:21:25 10° NNW 18:25:15 41° W 18:29:05 10° SSW
USA 234 4.0 18:23:26 11° SE 18:29:19 39° SSW 18:35:24 10° WNW
ATLAS 3B R/B 3.6 18:28:35 10° SSE 18:33:43 25° ESE 18:38:55 10° ENE
CARTOSAT-1 4.2 18:30:21 10° S 18:34:35 54° W 18:38:52 10° NNW
Cosmos 1867 3.5 18:29:51 10° SW 18:35:17 72° SE 18:40:46 10° ENE
Okean 3 3.5 18:31:40 10° NNW 18:35:59 88° ENE 18:39:55 12° SSE
Meteor 2-4 Rocket 4.0 18:30:49 10° NNW 18:36:30 68° WSW 18:41:57 10° S
Cosmos 1933 Rocket 3.8 18:35:49 10° SSW 18:40:14 73° WNW 18:44:44 10° NNE
SL-4 R/B 3.1 18:40:19 10° SW 18:43:14 21° S 18:44:49 16° SSE
Meteor 1-23 Rocket 4.5 18:38:30 10° NNW 18:44:20 67° ENE 18:49:21 14° SSE
Meteor 1-13 Rocket 4.2 18:39:11 10° NNW 18:44:45 84° WSW 18:49:51 12° SSE
CZ-2C R/B 4.5 18:40:54 10° N 18:45:29 33° NW 18:50:04 10° WSW
NOSS 0 Rocket 4.3 18:40:12 10° NW 18:46:27 66° NE 18:52:39 10° ESE
SL-16 R/B 3.5 18:41:47 10° NW 18:46:47 32° WSW 18:51:45 10° S
Cosmos 2219 Rocket 2.3 18:42:40 10° NW 18:48:24 84° NE 18:53:23 14° SE
Meteor 1-14 Rocket 4.4 18:43:14 10° SSW 18:49:10 89° ESE 18:55:13 10° NNE
Spot 4 4.3 18:45:23 14° SE 18:49:25 54° ENE 18:54:10 10° NNW
Iridium 4 Rocket 3.0 18:45:41 12° S 18:49:28 66° E 18:53:36 10° N
COSMOS 2487 4.2 18:48:31 15° SE 18:49:37 17° ESE 18:51:54 10° ENE
Cosmos 1869 Rocket 3.6 18:46:59 10° S 18:51:24 73° E 18:55:54 10° NNE
Cosmos 1954 Rocket 4.5 18:46:46 10° SW 18:52:05 67° NW 18:57:26 10° NNE
USA 238 DEB 3.7 18:45:49 10° SW 18:52:28 66° SE 18:59:27 10° ENE
USA 238 3.7 18:45:57 10° SW 18:52:34 65° SE 18:59:34 10° ENE
Tsikada Rocket 4.1 18:46:44 10° NNW 18:53:09 75° ENE 18:58:35 14° SSE
Okean 1-7 4.3 18:50:21 10° NNW 18:54:19 36° W 18:58:15 10° SSW
Cosmos 2322 3.8 18:49:22 10° NW 18:55:04 74° SW 18:59:44 15° SSE
BREEZE-M DEB (TANK) 4.3 18:52:35 10° SW 18:56:02 28° S 19:04:46 10° ESE
Cosmos 1741 Rocket 4.0 18:51:19 10° SSW 18:56:34 74° ESE 19:01:54 10° NE
Cosmos 1674 Rocket 3.6 18:56:20 10° N 19:00:41 67° ENE 19:03:56 17° SSE
Lacrosse 5 4.1 19:01:18 10° WSW 19:03:03 12° SW 19:04:47 10° SSW
Cosmos 2082 Rocket 2.8 18:57:37 10° WSW 19:03:16 63° NW 19:08:55 10° NE
CENTAUR R/B 2.8 18:57:08 10° SSW 19:03:17 56° SE 19:10:37 10° ENE
Cosmos 1536 3.4 19:00:46 17° SSE 19:03:27 42° E 19:07:13 10° NNE
Cosmos 2322 Rocket 3.6 19:00:39 10° NW 19:05:31 30° WSW 19:10:22 10° SSW
Terra 2.6 19:01:13 10° S 19:05:44 48° W 19:10:23 10° NNW
Cosmos 2100 Rocket 4.0 19:01:31 10° S 19:07:40 88° ESE 19:13:52 10° NNE
Cosmos 2333 4.5 19:04:01 10° NW 19:09:47 63° WSW 19:14:16 17° SSE
Cosmos 1842 4.4 19:06:35 10° N 19:10:11 33° ENE 19:12:56 15° ESE
Cosmos 1238 Rocket 4.4 19:08:01 10° WSW 19:10:35 26° WNW 19:13:19 10° N
Cosmos 2173 Rocket 4.0 19:08:59 10° SSW 19:15:09 89° W 19:21:19 10° NNE
SL-16 R/B 3.3 19:09:55 10° NW 19:15:21 42° NNE 19:20:46 10° E
Cosmos 2360 Rocket 3.1 19:11:12 10° NW 19:16:26 39° WSW 19:20:54 14° S
Okean 2 4.2 19:12:48 10° N 19:16:45 41° ENE 19:19:34 17° SE
Geosat 4.1 19:12:52 17° SSE 19:16:45 71° SW 19:21:49 10° NW
ALOS 2 3.0 19:20:18 18° SE 19:23:26 54° ENE 19:27:46 10° NNW
Cosmos 1733 Rocket 3.3 19:20:26 18° S 19:23:32 56° E 19:27:54 10° NNE
FALCON 9 DEB 4.3 19:22:09 10° WSW 19:25:01 24° S 19:25:31 23° S
Cosmos 1725 Rocket 4.1 19:20:03 14° S 19:25:34 71° E 19:31:53 10° NNE
Cosmos 2084 Rocket 3.6 19:21:39 10° SW 19:25:45 49° SE 19:29:59 10° ENE
Cosmos 1500 3.7 19:25:14 10° SSW 19:28:55 56° WNW 19:32:40 10° N
SL-08 R/B 4.4 19:24:37 14° S 19:29:55 76° E 19:36:04 10° NNE
Cosmos 773 Rocket 4.2 19:25:21 10° NNW 19:30:30 65° NE 19:34:38 16° SE
Cosmos 1459 Rocket 4.2 19:24:25 10° SSW 19:30:46 76° WNW 19:37:12 10° NNE
SAR-Lupe-2 4.4 19:28:18 10° N 19:31:49 50° WNW 19:35:18 10° SW
USA 267 3.4 19:26:33 10° E 19:32:51 48° SSE 19:39:09 10° SW
MTI 3.6 19:30:23 10° NNE 19:33:30 72° ESE 19:35:15 24° S
Cosmos 1975 4.4 19:32:14 16° SE 19:34:11 23° E 19:37:24 10° NE
Cosmos 2016 Rocket 4.1 19:28:46 12° S 19:34:49 89° ESE 19:41:16 10° NNE
COSMOS 2428 2.9 19:30:06 10° NW 19:35:47 64° WSW 19:39:52 19° SSE
Cosmos 1980 3.8 19:32:08 10° NW 19:37:52 81° NE 19:42:31 16° SE
Cosmos 1607 4.1 19:31:47 10° WNW 19:38:15 82° NNE 19:44:45 10° ESE
Cosmos 1356 3.3 19:37:15 19° SSW 19:39:37 88° WNW 19:43:05 10° NNE
Cosmos 1666 2.7 19:37:05 17° SSW 19:39:54 82° WNW 19:43:43 10° NNE
Cosmos 1242 Rocket 3.4 19:36:50 10° NNW 19:40:17 42° W 19:42:36 18° SSW
Cosmos 44 Rocket 3.9 19:35:50 10° WNW 19:40:31 44° SW 19:43:33 21° SSE
Cosmos 2297 Rocket 4.3 19:39:16 10° ESE 19:40:47 11° E 19:42:19 10° ENE
Cosmos 968 Rocket 4.2 19:38:04 20° SSE 19:40:58 36° ESE 19:45:39 10° NE
Cosmos 1538 Rocket 4.5 19:36:05 10° NNW 19:41:12 57° NE 19:45:38 14° SE
Cosmos 1833 Rocket 4.3 19:38:27 10° W 19:43:42 38° NNW 19:48:59 10° NE
NOSS 3-2 (A) 3.6 19:37:40 10° WSW 19:43:51 89° SSE 19:51:07 10° ENE
Cosmos 2237 Rocket 2.2 19:40:28 10° NW 19:46:11 84° NE 19:50:40 17° SE
CRYOSAT 2 4.4 19:44:21 10° N 19:49:15 82° W 19:52:58 18° SSW
Helios 1A 3.8 19:46:22 17° SE 19:49:20 44° ENE 19:53:22 10° N
SL-27 R/B 3.4 19:47:57 10° SW 19:51:10 44° NW 19:54:23 10° NNE
Cosmos 1378 3.5 19:47:48 10° NNW 19:51:31 57° W 19:53:40 23° S
NOSS 3-2 (C) 3.5 19:46:58 10° SW 19:53:05 80° SSE 20:00:16 10° ENE
Cosmos 1378 Rocket 3.9 19:49:00 10° NNW 19:53:24 60° W 19:56:17 21° S
Cosmos 2333 Rocket 2.9 19:48:32 10° NW 19:54:00 45° WSW 19:57:45 19° S
Cosmos 1743 3.0 19:53:16 25° SSE 19:55:20 56° E 19:59:11 10° NNE
Cosmos 1908 Rocket 3.9 19:53:16 23° SSE 19:55:43 49° E 19:59:56 10° NNE
Lacrosse 4 Rocket 1.9 19:53:40 22° S 19:55:52 40° SE 19:59:48 10° NE
ERBS 3.5 19:54:32 10° W 19:57:15 23° SSW 19:57:24 23° SSW
Cosmos 1271 Rocket 3.1 19:54:28 10° NNW 19:58:11 53° W 20:00:19 23° S
Cosmos 2061 Rocket 4.2 19:52:30 11° SSW 19:58:33 71° WNW 20:04:47 10° NNE
Meteor 1-11 Rocket 4.0 20:00:05 11° SSW 20:05:32 71° WNW 20:11:25 10° NNE
Cosmos 2233 Rocket 4.0 20:01:24 17° S 20:06:23 85° ESE 20:12:46 10° NNE
Cosmos 1975 Rocket 3.1 20:08:53 10° NNW 20:13:26 89° E 20:16:03 25° SSE
Thor Agena Rocket 3.5 20:09:01 10° NNE 20:14:07 74° ESE 20:17:38 21° S
Cosmos 1464 Rocket 4.4 20:10:08 20° SSE 20:14:13 49° E 20:20:08 10° NNE
Cosmos 1544 3.4 20:13:03 28° SSE 20:14:41 53° E 20:18:19 10° NNE
Cosmos 2344 4.2 20:08:13 10° WNW 20:16:48 71° SW 20:28:33 10° SE
Cosmos 1437 3.3 20:14:58 10° N 20:17:53 43° ENE 20:19:10 26° SE
Nadezhda 4 Rocket 4.2 20:12:02 10° NNW 20:18:22 70° ENE 20:22:54 20° SSE
Cosmos 1867 4.2 20:13:42 10° W 20:19:08 61° NNW 20:24:35 10° ENE
Cosmos 1674 4.4 20:17:33 10° N 20:20:45 26° ENE 20:23:31 12° ESE
Cosmos 1680 Rocket 4.3 20:16:17 10° NNW 20:21:24 49° NE 20:26:29 10° ESE
SL-4 R/B 3.9 20:19:43 10° WSW 20:20:22 12° SW 20:20:22 12° SW
ATLAS 3B R/B 2.6 20:16:52 10° SW 20:23:23 66° SE 20:30:03 10° ENE
COSMOS 2487 2.5 20:21:59 20° SW 20:24:13 77° WNW 20:27:41 10° NNE
Cosmos 2227 Rocket 3.8 20:27:48 15° SE 20:30:26 20° ESE 20:34:27 10° ENE
Cosmos 2219 Rocket 3.4 20:27:00 10° NW 20:31:54 30° WSW 20:35:05 18° SSW
NOSS 0 Rocket 4.4 20:26:53 10° NW 20:32:49 47° WSW 20:36:37 22° S
MOS 1-B Rocket 4.1 20:28:41 10° NNE 20:34:24 68° WNW 20:39:23 13° SW
Cosmos 1707 2.8 20:31:01 10° NNW 20:34:58 76° ENE 20:37:01 27° SSE
Cosmos 1025 Rocket 3.1 20:32:46 10° NNW 20:37:03 68° ENE 20:39:34 24° SSE
Cosmos 1092 Rocket 4.3 20:31:36 10° NNW 20:37:50 65° ENE 20:42:32 18° SSE
Okean 2 Rocket 4.1 20:35:32 21° SE 20:37:55 36° E 20:42:03 10° NNE
Cosmos 1536 4.2 20:36:28 11° SW 20:39:59 33° WNW 20:43:38 10° N
SJ 16-02 3.7 20:42:00 10° ESE 20:43:22 11° E 20:44:44 10° ENE
USA 238 DEB 4.0 20:36:39 10° W 20:43:30 76° NNW 20:50:43 10° ENE
USA 238 4.0 20:36:45 10° W 20:43:37 76° NNW 20:50:50 10° ENE
Terra 4.4 20:43:28 10° W 20:44:42 11° WNW 20:45:56 10° WNW
Cosmos 2034 Rocket 4.3 20:41:53 21° SSE 20:46:04 58° E 20:52:18 10° NNE
Cosmos 724 4.4 20:40:13 10° WNW 20:46:12 83° NNE 20:52:18 10° ESE
Cosmos 1842 4.0 20:42:33 10° NNW 20:46:18 41° W 20:48:12 24° SSW
EO 1 Del DPAF 3.4 20:42:44 10° NNE 20:46:30 67° WNW 20:48:44 23° SW
Cosmos 1072 Rocket 4.5 20:43:36 22° S 20:47:43 78° E 20:53:52 10° NNE
MINOTAUR 4 R/B 4.2 20:46:23 26° SE 20:48:14 67° ENE 20:51:47 10° NNW
Cosmos 2082 Rocket 4.1 20:43:15 10° W 20:48:21 32° NNW 20:53:26 10° NE
Cosmos 1833 4.3 20:42:53 10° SW 20:48:34 79° NW 20:54:18 10° NE
Cosmos 1626 4.1 20:47:33 10° N 20:50:40 24° ENE 20:53:46 10° ESE
Cosmos 1503 Rocket 4.1 20:48:42 21° SSW 20:52:18 73° ESE 20:57:40 10° NE
Okean 2 4.5 20:49:46 10° NNW 20:53:32 34° W 20:55:39 21° SW
CENTAUR R/B 3.0 20:47:11 10° WSW 20:53:52 81° NNW 21:01:52 10° ENE
Cosmos 923 Rocket 4.1 20:48:53 10° NNW 20:54:17 82° NE 20:58:31 17° SE
Sich 1 Rocket 3.7 20:53:36 26° S 20:55:57 66° E 21:00:19 10° NNE
Cosmos 1486 Rocket 4.1 20:53:33 15° SW 20:57:58 76° NW 21:03:12 10° NNE
Resurs 1-4 Rocket 4.3 20:55:56 10° NE 20:58:56 15° E 21:01:56 10° ESE
YAOGAN 11 4.3 20:56:23 25° S 20:58:59 68° WSW 21:03:34 10° NNW
SL-16 R/B 2.2 20:54:15 10° NW 20:59:59 80° SW 21:04:29 17° SSE
ALOS 2 3.8 20:57:42 19° SW 21:00:02 31° W 21:03:59 10° NNW
Cosmos 2084 Rocket 3.6 21:00:52 10° WSW 21:05:11 76° NNW 21:09:36 10° ENE
Cosmos 1975 3.1 21:07:59 24° SSW 21:10:19 62° WNW 21:14:23 10° N
Cosmos 2151 Rocket 4.1 21:08:03 23° SSE 21:10:27 47° E 21:14:42 10° NNE
SL-16 R/B 3.2 21:08:32 10° SE 21:14:37 55° ENE 21:20:42 10° NNW
Cosmos 1536 Rocket 3.5 21:11:47 10° NNW 21:16:09 74° W 21:18:31 26° S
USA 267 3.2 21:10:00 10° E 21:16:32 66° S 21:23:04 10° WSW
COSMOS 2428 4.5 21:15:20 10° WNW 21:19:04 18° W 21:21:52 13° SW
PSLV R/B 4.1 21:16:35 10° NNE 21:21:12 57° ESE 21:24:00 23° S
Cosmos 968 Rocket 3.9 21:18:03 13° SW 21:22:35 62° NW 21:27:44 10° NNE
Cosmos 2297 Rocket 2.8 21:20:13 22° S 21:23:27 43° ESE 21:28:47 10° NE
Helios 1A 3.9 21:22:59 23° SSW 21:24:59 37° W 21:28:57 10° NNW
Cosmos 1607 4.4 21:19:12 10° WNW 21:25:16 45° SW 21:29:33 19° S
Meteor 2-9 Rocket 4.4 21:21:24 20° SSW 21:25:27 71° WNW 21:31:18 10° NNE
Cosmos 1782 Rocket 4.0 21:23:22 21° SW 21:26:07 53° WNW 21:30:24 10° N
KORONAS-FOTON 3.7 21:23:17 10° NNW 21:27:07 85° ENE 21:29:11 26° SSE
In-Cosmos 22 4.4 21:22:18 10° NNW 21:27:49 60° W 21:31:14 23° S
TIMED 4.5 21:25:02 10° NW 21:29:26 74° WSW 21:32:17 21° SSE
Cosmos 2237 Rocket 3.2 21:24:57 10° NW 21:29:47 30° WSW 21:32:28 20° SSW
Meteor 1-24 Rocket 4.0 21:24:28 10° NNW 21:29:57 63° ENE 21:34:39 13° SSE
Cosmos 2026 Rocket 3.9 21:25:59 10° NNW 21:32:07 83° WSW 21:36:35 20° S
ADEOS II 4.5 21:30:24 10° NE 21:32:44 13° ENE 21:35:04 10° ESE
Lacrosse 4 Rocket 1.9 21:30:19 10° WSW 21:34:30 58° NNW 21:38:36 10° NE
Cosmos 2219 3.5 21:31:18 22° S 21:34:45 55° ESE 21:40:14 10° NE
NOSS 3-2 (A) 4.1 21:28:39 10° W 21:35:09 71° N 21:42:47 10° E
Iridium 51 4.3 21:31:06 10° N 21:35:22 85° W 21:37:28 27° S
Cosmos 2333 Rocket 4.3 21:34:54 10° WNW 21:36:54 12° W 21:38:53 10° WSW
Cosmos 1603 3.9 21:34:36 10° NW 21:40:25 77° NE 21:46:10 10° SE
NOSS 3-2 (C) 4.0 21:37:52 10° W 21:44:19 71° N 21:51:54 10° E
Timation 2 Rocket 3.9 21:41:08 19° SSW 21:45:35 75° SE 21:51:35 10° NE
Cosmos 2112 Rocket 4.0 21:42:55 10° NW 21:48:08 67° WSW 21:52:04 18° SSE
Cosmos 158 Rocket 4.2 21:44:45 10° NW 21:50:02 59° WSW 21:53:51 19° S
Meteor 1-12 Rocket 4.4 21:45:54 21° SSW 21:50:08 84° WNW 21:56:14 10° NNE
Cosmos 1437 4.4 21:48:19 10° NW 21:50:33 19° W 21:51:13 18° WSW
Cosmos 1634 Rocket 4.1 21:50:33 20° S 21:55:05 77° E 22:01:18 10° NNE
Cosmos 1674 3.0 21:52:53 10° NNW 21:56:31 50° W 21:58:19 26° SSW
Cosmos 1300 Rocket 3.8 21:57:17 22° SW 21:59:56 61° WNW 22:04:15 10° N
Cosmos 1943 3.2 21:54:35 10° NW 22:00:16 85° NE 22:05:55 10° SE
Meteor 2-5 Rocket 3.7 21:56:07 10° NNW 22:01:46 72° WSW 22:05:56 18° S
CZ-2D R/B 3.3 21:57:16 10° NNE 22:02:20 36° E 22:06:57 12° SSE
Cosmos 1867 4.3 21:57:58 10° WNW 22:03:23 57° N 22:08:47 10° E
Cosmos 1680 Rocket 3.8 21:58:34 10° NW 22:03:37 49° WSW 22:07:04 20° S
Meteor 2-19 Rocket 4.5 21:59:12 10° NNW 22:05:25 88° ENE 22:10:58 13° SSE
Helios 1B rocket 2.4 22:02:05 10° NNE 22:06:12 86° ESE 22:08:43 23° SSW
MOZ.5/SAFIR/RUBIN 5/SL-8 3.8 22:03:34 18° S 22:07:04 76° WSW 22:11:49 10° NNW
Cosmos 1766 3.5 22:10:01 21° S 22:12:24 62° E 22:16:16 10° NNE
Cosmos 2227 Rocket 2.3 22:09:36 20° SSW 22:13:38 70° SE 22:19:18 10° NE
ATLAS 3B R/B 2.9 22:07:31 10° W 22:14:10 73° NNW 22:21:00 10° ENE
Meteor 1-29 3.0 22:11:52 10° NNE 22:15:22 74° ESE 22:17:19 24° S
Okean 2 Rocket 3.8 22:12:54 18° SW 22:15:57 46° WNW 22:20:21 10° N
Cosmos 1777 Rocket 4.1 22:12:29 18° SW 22:16:28 79° NW 22:21:49 10° NNE
Okean 1 Rocket 3.0 22:14:30 22° S 22:17:20 87° ESE 22:21:46 10° NNE
CZ-4 R/B 4.1 22:15:41 10° NNE 22:20:40 67° WNW 22:24:20 18° SW
SJ 16-02 1.8 22:18:08 20° S 22:21:00 53° ESE 22:25:20 10° NE
Cosmos 1733 3.4 22:20:05 21° S 22:22:33 67° E 22:26:25 10° NNE
Cosmos 2266 Rocket 4.1 22:17:35 10° NNW 22:24:01 86° ENE 22:30:18 10° SSE
Cosmos 1626 2.3 22:22:32 10° NNW 22:26:13 55° W 22:28:26 22° S
Cosmos 1470 4.0 22:23:20 12° SSE 22:26:37 35° E 22:30:18 10° NNE
NOSS 8 (A) 4.0 22:25:25 21° WSW 22:27:18 81° SSE 22:30:32 10° ENE
Okean 1-7 Rocket 3.5 22:24:29 10° NNW 22:28:56 81° W 22:32:39 15° S
UNK 3.8 22:25:25 16° S 22:29:12 69° WSW 22:33:54 10° NNW
Cosmos 2082 Rocket 4.3 22:28:56 10° NW 22:33:57 30° N 22:38:55 10° ENE
USA 238 DEB 4.0 22:28:02 10° WNW 22:35:01 75° NNE 22:42:21 10° E
Cosmos 1805 3.3 22:32:35 21° SSW 22:35:06 74° WNW 22:39:01 10° NNE
USA 238 4.0 22:28:08 10° WNW 22:35:07 75° NNE 22:42:27 10° E
SL-19 R/B 4.4 22:29:52 10° NNE 22:35:53 80° ESE 22:40:28 16° SSW
Cosmos 1626 Rocket 3.8 22:33:34 10° NNW 22:37:55 69° ENE 22:42:13 10° SSE
Cosmos 2082 3.8 22:34:49 18° SSW 22:39:04 66° ESE 22:44:40 10° NE
Resurs 1-4 Rocket 2.5 22:34:39 10° NNE 22:39:55 60° ESE 22:44:27 14° S
SL-16 R/B 3.4 22:38:58 10° NW 22:43:24 24° WSW 22:46:18 16° SW
Cosmos 2084 Rocket 3.9 22:40:38 10° WNW 22:44:58 68° N 22:49:26 10° E
CENTAUR R/B 3.3 22:38:05 10° WNW 22:45:12 74° N 22:53:32 10° E
Cosmos 1455 Rocket 3.5 22:41:31 14° S 22:45:15 60° E 22:49:40 10° NNE
SL-14 R/B 3.9 22:44:26 10° NNW 22:48:07 39° W 22:50:32 18° SSW
Cosmos 1892 Rocket 4.0 22:46:06 10° NNW 22:50:23 46° W 22:53:36 16° SSW
Cosmos 2098 Rocket 3.8 22:48:40 10° NNW 22:53:39 65° W 22:59:48 10° S
Cosmos 2263 Rocket 3.4 22:49:36 10° S 22:54:30 33° ESE 22:59:25 10° NE
SL-16 R/B 2.9 22:52:56 13° S 22:58:23 49° W 23:04:28 10° NNW
Cosmos 1655 Rocket 4.3 22:53:18 10° NNW 22:59:23 53° W 23:04:50 13° SSW
Cosmos 1758 Rocket 4.4 22:55:43 10° N 22:59:57 51° ENE 23:04:11 10° SE
USA 267 3.3 22:53:37 10° ESE 23:00:05 60° SSW 23:06:35 10° W
CZ-4C R/B 3.8 22:58:24 17° SSW 23:00:42 37° W 23:04:13 10° NNW
NOSS 3-1 (C) 4.0 22:57:24 15° SSW 23:02:01 47° SE 23:08:29 10° ENE
Meteor 1-21 Rocket 4.2 23:00:46 10° NNW 23:06:23 83° WSW 23:11:55 10° S
Uosat 12 SS-18 rocket 4.1 23:02:09 11° WSW 23:06:34 86° NNW 23:10:55 10° ENE
Cosmos 2297 Rocket 2.5 23:02:01 11° WSW 23:07:23 64° NW 23:13:03 10° NE
AQUA 4.1 23:03:01 10° NNE 23:07:48 68° ESE 23:12:22 11° S
Cosmos 1048 Rocket 3.9 23:03:54 10° NW 23:09:04 75° WSW 23:14:13 10° SSE
ADEOS II 2.8 23:08:33 10° NNE 23:13:43 52° E 23:18:51 10° S
Lacrosse 4 Rocket 3.2 23:10:06 10° WNW 23:13:50 31° N 23:17:33 10° NE
Cosmos 1833 Rocket 4.2 23:09:00 10° NW 23:14:21 41° NNE 23:19:41 10° E
Cosmos 1461 3.2 23:13:38 14° SW 23:17:25 67° SE 23:22:06 10° ENE
Meteor 1-28 Rocket 3.3 23:14:06 10° SSE 23:17:55 79° ENE 23:21:46 10° NNW
Cosmos 2219 3.8 23:13:31 10° WSW 23:19:01 53° NW 23:24:35 10° NE
Cosmos 1825 Rocket 4.1 23:14:49 10° N 23:19:09 60° ENE 23:23:26 10° SSE
H-2A R/B 3.2 23:17:01 10° SE 23:20:55 44° ENE 23:24:53 10° N
Cosmos 1603 4.4 23:19:04 10° NW 23:24:12 34° WSW 23:29:17 10° S
GEOS 3 Rocket 4.3 23:20:38 10° ENE 23:25:52 47° SE 23:30:53 11° SSW
Cosmos 2279 Rocket 4.4 23:20:54 12° SW 23:26:28 52° WNW 23:32:34 10° N
NOSS 3-2 (A) 3.9 23:19:38 10° WNW 23:26:32 89° NNE 23:34:33 10° ESE
Cosmos 1269 Rocket 4.3 23:22:41 10° NNW 23:28:01 77° NE 23:33:20 10° SE
Cosmos 1937 Rocket 3.6 23:24:35 12° SSW 23:29:34 80° ESE 23:34:55 10° NE
Cosmos 1953 Rocket 4.4 23:25:20 10° N 23:29:48 55° ENE 23:34:12 10° SSE
Cosmos 1726 2.3 23:27:56 10° S 23:31:36 68° E 23:35:15 10° NNE
CZ-4B R/B 3.5 23:27:55 10° NNE 23:32:44 78° ESE 23:37:30 10° SSW
Cosmos 1544 Rocket 3.6 23:28:26 11° SSW 23:32:47 79° WNW 23:37:17 10° NNE
Cosmos 990 Rocket 4.0 23:29:02 12° SW 23:33:52 78° NW 23:39:05 10° NNE
NOSS 3-2 (C) 4.0 23:28:58 10° WNW 23:35:48 83° NNE 23:43:48 10° ESE
Meteor 2-16 Rocket 4.5 23:29:51 10° NNW 23:36:03 79° WSW 23:42:12 10° S
Meteor 2-10 4.4 23:31:23 10° S 23:36:59 76° ESE 23:42:45 10° NNE
ERS-2 3.4 23:34:21 10° SE 23:37:52 45° ENE 23:41:24 10° N
Meteor 2-21 Rocket 4.5 23:31:58 10° NNW 23:37:59 69° W 23:44:01 10° S
Landsat 5 4.3 23:34:35 10° SE 23:38:35 55° ENE 23:42:46 10° NNW
USA 229 DEB 4.0 23:32:46 11° SW 23:39:06 61° SE 23:46:03 10° ENE
USA 229 4.0 23:32:52 11° SW 23:39:10 61° SE 23:46:06 10° ENE
CBERS-1 4.1 23:34:24 10° NNE 23:39:34 79° ESE 23:44:41 10° SSW
Cosmos 1758 3.4 23:36:38 11° SSW 23:40:31 67° WNW 23:44:31 10° N
Helios 1B rocket 4.2 23:37:54 10° N 23:41:03 22° NW 23:44:11 10° W
COBE Rocket 4.4 23:36:54 10° SSW 23:41:13 37° W 23:45:35 10° NNW
Cosmos 1340 Rocket 2.9 23:37:29 11° SSW 23:41:15 65° WNW 23:45:11 10° NNE
CZ-2D R/B 2.4 23:37:19 10° NNE 23:42:44 62° WNW 23:48:09 10° SW
ARIANE 5 R/B 3.4 23:38:29 10° NNE 23:43:36 51° E 23:48:42 10° S
Cosmos 1943 4.0 23:39:02 10° NW 23:43:51 29° WSW 23:48:37 10° SSW
Cosmos 1898 Rocket 3.6 23:39:48 11° SW 23:44:55 72° NW 23:50:08 10° NNE
Cosmos 1602 Rocket 3.9 23:41:33 10° NNW 23:45:45 45° W 23:49:53 10° SSW
Cosmos 1703 3.3 23:42:33 10° NNW 23:46:32 67° W 23:50:28 10° S
Cosmos 1867 3.6 23:41:51 10° WNW 23:47:21 85° SW 23:52:50 10° SE
SL-08 R/B 3.5 23:44:24 10° S 23:49:18 58° WSW 23:54:11 10° NNW
NOSS 3-1 (A) 3.9 23:44:39 10° SSW 23:50:18 55° SE 23:56:59 10° ENE
